METEOR 2-17 DEB, 35368

Orbit data source: Space-Track

METEOR 2-17 DEB, 35368 is space debris in LEO originally from a launch on Sat, 30 Jan 1988 UTC launched from the Plesetsk Missile And Space Complex (PKMTR). Debris objects in space refer to the collection of defunct objects orbiting the Earth. Examples of debris include non-operational satellites, rocket bodies, and fragments generated from explosions, collisions, or faulty payload assembly.

Loading next visibility...
Identifier
35368, 1988-005AC
Orbit
LEO
Country
Flag of CISCIS
Related business
Manufacturer
Unknown
Mission
Spacecraft
Bus & Motor
Unknown
Mass
Unknown
Launch date (UTC)
1988-01-30 (38 years ago)
Launch vehicle
Unknown
Launch site
Plesetsk Missile And Space Complex (PKMTR)
Object type
Payload
Rocket body
Debris
Shape & HBR
Unknown shape, 0.1 m
Radar Cross Section
Small (<0.1 m²)

Expand to show TLE details & history
Last TLE update: 2 weeks ago

TLE from 2 weeks ago
0 METEOR 2-17 DEB
1 35368U 88005AC  25292.11399271  .00007255  00000-0  40787-2 0  9996
2 35368  82.5468  85.1792 0029486  79.2938 281.1555 14.10116830944716
Epoch: 2025-10-19T02:44Z
TLE epoch observation values (Epoch: 2025-10-19T02:44:08.970Z)
Latitude
0.00006°
Longitude
16.30652°
Altitude
857.841 km
Speed
7.426 km/s
True Right ascension
05h 40m 43s
True Declination
0° 00' 00"
Sunlit
Object was in partial shadow at epoch
Visualization orbit readout
Latitude
Unknown
Longitude
Unknown
Altitude
Unknown
Speed
Unknown
Apparent Right ascension
Unknown
Apparent Declination
Unknown
Sunlit
N/A
Visualization observer readout
Local Sidereal Time
07:35:11
Azimuth
Unknown
Elevation
Unknown
Doppler factor
Unknown
Orbital elements
Apogee altitude
877.419 km
Perigee altitude
834.757 km
Semi-major axis
7,234.225 km
Eccentricity
0.00295
Inclination
82.5468°
RAAN
85.1792°
Arg. of periapsis
79.2938°
True anomaly
280.82376°
Mean anomaly
281.1555°
Eccentric anomaly
280.98966°
Mean motion
3.5274 °/min
Orbital period
102.06 mins
BSTAR
0.0040787
Loading maneuver chart data...
Computing Atmospheric mass density...
Loading historical data...
Loading historical data...
Loading historical data...
Loading historical data...
Loading historical data...
Loading historical data...
Loading historical data...

Documentation

Showing up to 5 results
|